Theta_e
332 335 336 332 337 337 335 334 336 338 340 340 342 342 344 346 347 346 349 350 349 347 345 345 346 345 345 347 348 350 350 349 349 349 349 346 345 345 344 343 346 349 351 354
332 335 332 331 331 335 335 335 335 335 338 340 341 344 344 344 346 346 347 350 349 349 346 345 345 345 345 347 348 350 351 350 349 349 347 345 344 344 343 343 345 350 353 355
329 331 330 327 328 331 335 335 334 335 336 340 339 342 341 342 341 345 344 349 349 350 349 346 345 345 345 346 348 350 350 350 349 348 348 347 345 343 344 344 347 352 354 356
328 328 327 327 328 328 328 331 333 333 336 341 338 342 341 340 341 342 342 346 349 349 350 348 346 345 345 345 348 350 350 349 349 345 350 348 346 344 343 345 347 351 354 355
328 327 327 327 327 328 328 329 331 332 334 337 338 341 341 341 341 341 342 342 346 348 349 349 347 345 345 345 346 349 351 351 348 348 345 350 348 346 346 346 348 350 353 353
329 327 328 328 328 328 328 328 329 330 332 335 337 340 341 340 342 341 342 342 343 348 349 349 348 346 344 344 345 348 354 354 350 352 340 347 349 347 345 348 350 351 352 354
328 329 328 328 328 328 327 327 328 329 332 333 333 336 339 338 338 340 341 342 342 346 348 349 348 347 344 344 347 349 353 355 354 353 351 339 345 347 346 348 352 351 350 350
328 328 329 327 328 328 328 327 328 331 330 330 332 335 337 337 336 337 339 340 342 344 347 349 349 349 346 345 346 348 352 353 352 348 346 343 340 350 350 350 353 352 351 349
330 330 329 328 328 329 329 329 328 329 330 330 330 332 333 335 336 336 336 338 341 343 346 348 349 349 348 346 347 348 350 354 352 348 347 346 344 343 352 350 350 355 353 350
330 332 330 328 328 328 330 329 328 329 332 332 331 332 333 334 334 335 336 338 338 342 345 348 349 350 349 349 347 349 350 354 345 341 342 344 345 345 345 351 352 355 354 353
330 333 334 331 329 329 329 330 329 329 329 331 333 332 333 334 334 334 336 335 336 338 344 346 347 349 351 350 350 350 352 352 355 346 341 342 343 344 345 346 348 347 350 354
329 331 334 332 329 329 329 330 331 333 333 330 332 333 333 333 333 334 334 335 335 337 340 343 346 348 349 351 352 353 354 355 354 349 343 339 338 341 343 343 346 346 345 346
329 331 334 335 331 330 330 329 330 330 330 333 331 333 332 332 332 333 334 334 335 337 339 341 344 347 348 349 351 353 354 356 358 359 358 352 342 340 338 340 341 343 343 345
322 329 333 336 335 331 330 330 330 331 333 332 333 332 332 332 332 335 335 334 336 338 339 341 343 345 346 348 349 352 352 353 356 359 360 359 356 342 339 338 337 339 341 342
324 330 331 332 334 332 331 330 330 331 332 332 332 333 333 332 333 333 333 334 334 335 337 338 339 341 343 346 348 352 351 352 352 355 358 358 358 355 352 344 338 337 338 339
322 326 330 333 332 331 330 331 330 330 330 331 331 333 334 333 331 332 332 332 331 332 334 335 337 339 340 342 347 350 354 350 352 353 355 357 358 358 356 352 345 342 339 340
319 324 330 333 332 330 331 331 332 331 331 331 332 332 333 333 333 332 331 332 332 332 331 332 332 336 340 343 344 347 351 354 352 352 355 356 357 356 355 354 353 345 342 346
317 321 324 328 331 334 331 331 330 330 331 331 331 332 333 333 332 332 332 332 332 332 332 331 332 333 336 339 342 345 348 352 353 353 352 357 357 357 355 353 352 356 357 354
315 318 322 325 330 330 330 329 330 330 331 330 331 331 331 330 330 331 330 330 330 330 331 331 332 332 332 333 337 339 345 349 354 351 352 349 359 357 357 352 358 359 355 357
314 316 318 323 327 332 329 328 326 328 331 330 330 330 331 331 332 332 330 333 335 336 336 338 334 332 333 334 334 335 339 345 349 341 348 354 357 358 355 354 350 351 351 350
314 316 317 319 323 325 326 327 326 328 340 335 332 331 333 337 340 340 339 338 338 339 341 340 339 337 336 336 335 335 336 340 333 353 355 356 356 358 355 352 352 352 354 360
318 316 317 318 320 322 322 322 325 327 330 329 330 331 333 334 335 335 336 338 338 339 342 342 341 338 335 337 338 338 338 333 343 347 353 356 357 356 360 356 355 357 356 357
314 317 317 317 318 319 319 319 319 320 321 322 323 324 326 327 327 330 333 336 339 340 345 346 342 340 344 342 344 348 335 343 344 348 352 356 358 356 358 359 359 362 360 361
314 314 315 316 317 317 316 316 316 317 317 318 319 320 320 321 322 326 329 331 337 339 346 347 345 349 346 350 353 349 343 354 351 352 354 358 359 358 357 362 363 362 361 361
313 314 314 315 315 314 314 315 315 315 316 316 317 317 319 323 323 325 328 330 335 338 348 348 352 351 351 355 358 357 355 357 357 357 359 359 361 361 362 361 362 361 361 361
312 313 314 314 314 315 315 314 314 315 315 315 316 318 319 320 320 322 325 329 336 343 351 352 355 360 361 359 358 362 359 359 359 358 358 359 360 362 362 361 360 361 361 360
Wind_Speed
29 19 26 30 28 25 22 22 25 22 16 20 19 18 20 23 22 20 26 27 29 30 30 31 31 30 29 29 29 28 28 27 25 23 20 20 19 17 16 15 16 15 14 11
18 29 27 25 27 28 27 24 22 22 15 13 19 20 18 16 21 21 23 28 29 29 30 32 33 33 32 31 31 31 31 30 31 24 23 20 19 17 16 15 17 17 13 13
28 20 27 27 25 27 27 27 21 18 20 19 15 19 18 20 17 23 20 28 28 32 33 34 35 36 34 34 34 34 34 33 33 26 23 22 20 20 18 17 17 16 15 13
30 25 29 27 28 26 27 26 23 19 19 17 22 16 20 18 20 18 24 28 31 32 34 35 36 37 37 37 35 34 36 36 34 34 24 26 24 21 20 18 17 16 17 15
31 24 22 29 25 27 24 21 23 22 18 17 19 19 18 25 23 23 21 26 31 33 36 37 37 38 38 36 35 35 37 36 34 34 33 27 28 22 17 18 18 21 18 17
29 24 23 21 25 22 22 20 21 22 18 19 25 20 18 16 25 27 25 28 27 33 35 36 36 35 36 36 35 34 36 37 36 35 35 34 29 27 22 20 19 18 18 18
28 32 23 23 23 23 20 20 13 16 18 17 25 23 19 18 19 19 19 29 28 30 34 36 37 37 37 38 37 36 37 39 37 37 35 38 37 31 28 25 21 19 18 17
22 24 34 22 28 25 27 25 16 22 19 18 24 27 24 25 13 18 28 27 30 30 34 36 37 39 39 41 43 42 41 42 41 41 40 37 38 32 31 29 22 21 19 17
25 30 33 30 25 27 23 27 26 23 23 15 20 24 26 23 27 20 17 28 31 33 34 36 38 39 39 41 44 46 43 44 44 44 43 42 40 39 34 32 31 25 22 19
28 19 30 32 25 29 28 24 23 18 22 20 16 16 17 21 18 25 25 20 29 32 33 36 38 39 40 40 46 48 49 47 47 46 46 45 44 43 41 36 35 29 29 26
32 23 17 27 28 28 25 22 27 21 18 15 12 9 18 19 22 22 21 35 29 30 34 36 36 39 41 41 40 45 48 51 47 47 47 47 47 46 43 44 42 37 33 31
37 13 21 31 28 27 27 29 28 17 24 18 12 2 11 10 8 17 23 27 34 31 32 32 35 34 36 39 39 41 43 45 50 47 47 49 48 47 47 46 45 43 40 38
5 15 17 23 25 26 31 31 25 27 19 20 16 6 8 6 2 16 18 25 27 28 28 30 31 33 34 37 41 41 41 42 41 43 43 46 49 49 49 47 45 44 42 41
10 17 24 19 25 23 29 31 30 25 20 18 20 15 12 6 7 5 7 16 22 21 22 23 28 32 33 32 37 40 40 39 39 39 40 43 47 49 48 47 46 45 44 42
7 15 20 26 13 11 30 31 31 31 24 25 15 19 14 13 13 13 13 9 6 6 6 9 13 15 17 26 31 37 40 38 38 42 43 45 46 47 46 47 45 45 46 46
8 12 19 22 18 7 13 22 31 29 28 23 23 15 17 13 11 8 9 9 6 6 11 10 14 18 20 27 29 32 36 41 38 41 46 44 44 44 47 47 47 46 46 47
12 10 11 15 18 11 17 21 19 26 26 25 21 19 11 9 8 4 7 7 6 8 8 11 12 12 17 19 24 27 31 33 39 43 40 44 44 46 46 46 47 51 52 49
12 10 8 11 17 21 13 17 16 13 14 14 13 9 10 8 9 13 13 12 14 14 12 12 13 15 14 16 20 22 21 28 35 39 46 41 45 44 45 45 46 44 42 45
13 10 7 10 14 7 21 14 17 23 19 15 14 13 9 11 11 13 13 13 15 18 18 15 17 18 17 17 18 19 18 22 29 36 43 46 41 43 44 45 41 39 39 39
14 12 11 8 14 19 7 11 1 2 10 15 21 17 15 12 11 12 14 13 11 10 11 11 13 20 19 16 21 20 19 25 31 33 35 37 39 41 44 42 41 39 39 39
12 12 14 13 9 11 5 8 6 11 5 10 4 6 11 7 8 13 12 12 12 14 16 17 16 15 16 19 23 23 25 28 30 27 28 33 37 39 40 39 38 37 36 32
11 13 12 14 17 20 11 2 6 8 6 10 12 13 9 8 11 15 17 17 17 19 20 19 20 22 21 19 20 26 30 30 31 29 29 31 34 35 32 37 35 35 34 34
11 11 10 12 13 9 12 14 14 6 5 9 11 11 12 14 16 18 18 19 20 21 21 19 19 20 17 16 17 22 27 25 29 29 32 32 32 32 32 32 34 30 30 28
13 12 13 15 17 16 19 15 15 16 17 19 19 18 19 22 22 22 20 21 23 23 23 20 16 16 15 14 15 21 20 21 26 29 29 28 30 30 32 25 24 24 25 26
15 16 17 20 22 26 29 25 24 24 25 27 28 26 25 24 23 23 24 24 24 26 25 15 14 15 13 13 12 12 14 17 20 22 20 23 22 24 22 23 23 22 22 26
20 21 17 18 24 22 22 24 26 29 31 33 30 28 28 29 30 27 28 26 24 25 17 17 15 10 13 17 13 9 11 14 17 18 18 19 19 20 20 24 26 27 27 27
Wind_Direction
199 201 213 211 218 223 235 212 230 202 185 199 222 221 187 171 187 199 178 190 193 193 191 193 195 195 197 198 198 200 199 203 203 202 206 206 211 215 214 214 215 221 220 228
188 217 213 218 213 223 234 242 215 231 200 202 209 222 205 244 184 199 193 189 196 191 189 194 196 196 198 199 201 203 202 204 205 207 206 210 213 217 219 219 221 219 225 235
204 214 216 209 216 214 225 232 232 221 218 215 226 228 223 225 208 188 210 188 197 194 191 193 196 199 199 200 201 204 207 205 211 201 211 211 212 215 221 220 221 225 225 223
220 223 195 212 216 213 220 222 236 237 232 211 205 233 212 218 201 197 200 195 192 198 195 193 196 198 201 202 203 205 212 210 213 209 207 212 213 215 217 219 217 221 223 217
210 215 195 209 210 214 227 213 222 237 242 249 233 220 238 198 211 198 205 202 194 197 196 195 196 198 201 202 203 205 212 213 207 215 205 215 215 218 218 214 216 221 228 223
225 211 222 214 213 213 214 229 221 220 234 238 231 239 220 225 204 208 190 206 200 194 197 199 197 196 199 201 203 204 208 215 213 214 219 206 219 209 213 214 215 218 221 229
213 226 212 224 208 200 207 207 206 217 216 226 226 232 234 230 220 203 209 197 199 196 196 197 194 194 195 199 202 204 209 217 215 212 219 214 212 220 208 211 215 217 222 224
211 214 220 199 214 198 206 209 214 210 216 222 228 230 226 236 246 229 199 208 198 193 198 197 198 196 196 197 200 202 207 217 220 218 221 222 221 218 217 215 213 220 219 226
203 224 193 213 210 212 195 215 217 239 215 234 215 218 238 229 223 219 240 203 198 190 197 196 198 200 198 197 200 203 205 214 222 221 222 225 225 222 217 216 223 214 222 221
243 216 221 199 206 215 226 205 216 229 248 224 233 242 208 209 223 213 207 211 216 186 193 199 199 200 201 202 202 204 207 212 224 222 224 226 228 228 225 221 220 221 218 221
238 249 239 206 203 198 206 211 212 228 231 241 241 240 222 202 202 216 217 211 213 207 190 198 201 201 203 204 205 207 208 211 215 225 224 226 229 231 231 228 231 229 229 220
215 233 237 202 199 211 208 216 200 221 215 237 262 117 32 159 208 190 215 210 209 203 195 197 198 201 203 206 208 209 211 213 216 223 224 227 231 233 234 234 230 234 234 236
190 225 220 238 190 198 220 208 218 211 232 211 227 172 121 117 279 190 195 212 205 202 198 194 197 198 206 206 208 210 212 216 217 218 220 222 228 230 233 235 234 232 234 236
299 244 226 217 198 192 207 216 212 217 217 221 209 231 121 104 156 138 187 193 194 199 199 202 200 198 202 207 207 210 215 217 218 218 219 221 224 229 232 233 236 235 234 235
268 239 236 250 255 218 198 216 213 217 215 223 204 208 167 135 129 143 139 128 126 152 209 227 239 236 209 202 207 211 216 216 216 217 219 222 227 228 226 229 232 235 235 237
309 267 251 250 243 228 261 230 219 213 223 221 231 228 190 168 145 151 162 183 171 200 181 195 216 222 226 218 210 214 216 216 216 217 217 220 222 226 228 228 230 231 234 235
303 270 235 231 235 229 238 232 237 224 212 224 222 227 230 168 181 200 230 260 240 227 233 246 243 224 224 215 216 217 216 217 216 220 219 218 220 225 228 228 228 233 233 233
270 290 278 236 230 225 235 206 233 248 255 239 240 250 250 263 260 248 244 253 261 259 261 260 246 226 218 219 213 216 215 220 220 220 221 220 219 221 226 229 229 227 226 230
235 260 257 247 228 207 220 228 209 212 223 228 235 233 243 255 260 260 256 259 269 277 277 270 248 234 234 229 211 215 217 220 225 227 225 222 218 218 223 230 224 225 228 229
215 217 260 254 247 218 170 75 117 72 218 222 218 228 235 227 232 232 250 266 291 305 297 318 278 256 255 248 242 236 230 226 229 246 229 224 217 219 223 226 230 232 234 235
200 217 222 235 254 244 347 89 215 185 78 5 278 183 226 209 342 338 327 323 320 310 297 287 285 281 268 256 251 252 235 229 252 229 225 223 219 218 225 228 229 230 230 221
211 198 219 229 236 239 273 23 228 44 52 18 10 11 357 329 317 315 318 318 314 311 305 287 277 274 270 266 250 239 236 234 237 228 221 220 219 217 218 220 224 223 224 226
249 256 233 229 224 242 275 296 270 4 324 312 322 312 312 304 304 300 305 310 310 313 311 296 279 277 271 260 239 235 238 230 229 226 217 213 214 216 206 221 215 216 222 220
263 259 267 270 265 273 285 289 278 295 289 288 291 286 289 288 289 294 300 305 307 309 307 297 278 274 270 259 250 248 235 225 224 219 212 205 206 210 204 212 211 211 216 222
282 295 272 261 258 274 275 272 274 277 280 282 280 283 289 292 291 292 297 302 302 304 304 290 281 271 265 257 258 249 232 216 209 208 204 202 202 202 201 197 204 209 213 219
268 266 258 259 265 266 260 258 258 259 262 272 279 285 285 287 286 288 291 295 298 297 287 288 285 264 241 244 224 208 212 198 194 195 194 197 192 194 191 204 207 203 212 217